カタログに戻る

KUIPER-00261

運用中通信LEO
NORAD 67158·PAYLOAD·🇺🇸 United States

打ち上げ Dec 15, 2025 から Cape Canaveral Space Force Station

Loading…

次のパス (今後24時間)

TLE

最新Source: CelesTrak SupGP

元期: Sep 14, 2026, 20:32 UTC

1 67158C 25301AB  26257.85581019  .00000973  00000+0  12743-3 0  2572
2 67158  51.9017 314.1898 0000362  75.6521 196.9421 14.79919128    17

AllMySatでKUIPER-00261をリアルタイム追跡

Download on the App Store